Hourly Data Report for May 18, 2020

OTTAWA INTL A
ONTARIO
Current Station Operator: NAVCAN

45°19'00.000" N
75°40'00.000" W
114.90 m
6106001
71628
YOW

Download Data

Hourly Data (May 2020)
Hourly Data Report for May 18, 2020
TIME
LST
Temp Definition
°C
Dew Point Definition
°C
Rel Hum Definition
%
Precip. Amount Definition
mm

Wind Dir Definition
10's deg

Wind Spd Definition
km/h
Visibility Definition
km
Stn Press Definition
kPa
Hmdx Definition


Wind Chill Definition


Weather Definition


00:00 13.7 6.5 61   6 9 24.1 100.91     LegendNANA
01:00 13.3 6.9 65   3 13 24.1 100.93     Cloudy
02:00 13.9 5.2 56   6 22 24.1 100.93     LegendNANA
03:00 13.4 1.8 45   6 26 24.1 100.95     LegendNANA
04:00 12.5 -1.3 38   7 24 24.1 100.99     Cloudy
05:00 11.0 -1.6 41   6 18 24.1 101.06     LegendNANA
06:00 11.3 -2.8 37   6 19 24.1 101.10     LegendNANA
07:00 12.4 -5.3 29   6 25 24.1 101.13     Mostly Cloudy
08:00 13.5 -5.7 26   8 26 24.1 101.19     LegendNANA
09:00 15.5 -4.5 25   8 21 24.1 101.16     LegendNANA
10:00 16.2 -4.9 23   8 21 24.1 101.12     Clear
11:00 17.8 -2.1 26   2 18 24.1 101.10     LegendNANA
12:00 18.9 0.2 28   5 18 24.1 101.05     LegendNANA
13:00 18.7 -0.1 28   5 13 24.1 101.03     Mostly Cloudy
14:00 19.4 -1.0 25   3 12 24.1 100.99     LegendNANA
15:00 20.6 -1.8 22   6 20 24.1 100.94     LegendNANA
16:00 20.4 -4.0 19   5 16 24.1 100.93     Mostly Cloudy
17:00 19.1 0.2 28   9 13 24.1 100.92     LegendNANA
18:00 18.3 -3.1 23   10 17 24.1 100.92     LegendNANA
19:00 16.9 -3.0 25   9 19 24.1 100.92     Mostly Cloudy
20:00 14.5 -2.4 31   8 16 24.1 101.01     LegendNANA
21:00 12.4 -1.7 37   7 12 24.1 101.08     LegendNANA
22:00 11.2 -3.0 37   6 13 24.1 101.11     Clear
23:00 11.4 -3.9 34   6 17 24.1 101.17     LegendNANA

Notes on Data Quality.

Legend

  • E = Estimated
  • M = Missing
  • NA = Not Available*
  • [empty] = Indicates an unobserved value
Date modified: